Regional Weather Roundup
Issued by NWS Portland, ME

Current Version | Previous Version | Text Only | Print | Product List | Glossary Off
Versions: 1 2 3 4 5 6 7 8 9 10 11 12 13 14 15 16 17 18 19 20 21 22 23 24 25 26 27 28 29 30 31 32 33 34 35 36 37 38 39 40 41 42 43 44 45 46 47 48 49 50
700 ASUS41 KGYX 191710 RWRGYX WEATHER ROUNDUP FOR MAINE AND NEW HAMPSHIRE NATIONAL WEATHER SERVICE GRAY ME 100 PM EDT THU OCT 19 2017 MEZ002-005-006-010-012-015-018-020-021-024-026-027-029-191800- MAINE CITY SKY/WX TMP DP RH WIND PRES REMARKS PORTLAND MOSUNNY 66 51 58 S9 30.07F SANFORD SUNNY 70 48 45 SW8G17 30.08F BAR HARBOR SUNNY 62 55 77 S18G25 30.11F WISCASSET SUNNY 67 52 58 S10G23 30.09F ROCKLAND SUNNY 59 55 87 S15G22 30.10F FRYEBURG SUNNY 69 46 43 S13G22 30.04F LEWISTONAUBURN SUNNY 70 47 43 S9G22 30.04F AUGUSTA SUNNY 68 47 46 SW10G20 30.05F WATERVILLE SUNNY 69 49 48 S14G21 30.00F BANGOR MOSUNNY 69 51 52 S18G24 30.04F GREENVILLE N/A 66 44 45 VRB6G17 29.97F MILLINOCKET SUNNY 67 46 47 VRB5 30.00F HOULTON SUNNY 68 45 43 SW15G26 29.99F PRESQUE ISLE SUNNY 68 44 42 S22G30 29.93F FRENCHVILLE CLOUDY 63 51 65 S15G23 29.89F CARIBOU SUNNY 69 43 38 S10G23 29.92F $$ NHZ002-005-008-009-011-012-014-191800- NEW HAMPSHIRE CITY SKY/WX TMP DP RH WIND PRES REMARKS PORTSMOUTH PTSUNNY 71 46 41 SW10 30.07F ROCHESTER SUNNY 71 46 40 VRB7 30.07F NASHUA SUNNY 71 44 37 SW8G16 30.10F MANCHESTER MOSUNNY 72 45 37 S13G21 30.07F CONCORD SUNNY 74 43 32 S14 30.07F LACONIA SUNNY 67 48 50 W8 30.07F PLYMOUTH FAIR 67 47 48 CALM 30.05F BERLIN SUNNY 72 36 26 SW13G20 30.00F WHITEFIELD SUNNY 71 39 31 VRB6G17 30.02F JAFFREY SUNNY 68 44 42 SW13G22 30.12F KEENE SUNNY 71 43 36 S13G21 30.09F LEBANON SUNNY 69 45 41 SW10 30.04F MT WASHINGTON MOSUNNY 45 28 53 SW35G41 N/A $$ VTZ005-007-008-191800- VERMONT CITY SKY/WX TMP DP RH WIND PRES REMARKS ST JOHNSBURY N/A 67 45 45 MISG 29.98F MONTPELIER SUNNY 69 37 30 SW12G24 30.04F BURLINGTON PTSUNNY 68 44 42 S16G26 29.95F $$ MAZ007-012-024-CTZ003-RIZ002-NYZ038-NYZ072-191800- SOUTHERN NEW ENGLAND AND NY CITY SKY/WX TMP DP RH WIND PRES REMARKS BOSTON MOSUNNY 73 48 41 SW18 30.12F WORCESTER SUNNY 68 39 34 SW18G25 30.14F NANTUCKET MOSUNNY 65 60 84 SW15 30.21F PROVIDENCE MOSUNNY 72 48 42 SW15G21 30.17F HARTFORD MOSUNNY 73 39 29 SW14 30.13F ALBANY MOSUNNY 69 46 43 S9 30.08F NEW YORK CITY MOSUNNY 69 41 36 SW15G22 30.19F $$ ANZ081-ANZ082-ANZ150-NHZ014-MEZ023>029-191800- COASTAL MARINE OBSERVATIONS STATION/POSITION TIME TEMP WIND PRES WAVE AIR SEA DIR/SP/G HT/PER (UTC) (F) (DEG/KT/KT) (MB) (FT/S) MOUNT DESERT ROC 1700 56 180/ 25/ 30 1020.2F MATINICUS ROCK 1600 57 190/ 22/ 23 1020.4F ISLE OF SHOALS 1600 60 190/ 17/ 18 1020.1F JEFFREYS LEDGE 1636 59 N/A 3/ 4 CASHES LEDGE BUO 1650 61 56 1020.3F 3/ 4 GEORGES BANK BUO 1550 65 62 1024.9 3/ 9 $$ .............KEY.............. WCI - WIND CHILL TC - TEMPERATURE IN CELSIUS VSB - VISIBILITY IN MILES HX - HEAT INDEX FAIR- INDICATES FEW OR NO CLOUDS BELOW 12,000 FT, WITH NO SIGNIFICANT WEATHER AND/OR OBSTRUCTIONS TO VISIBILITY.

USA.gov is the U.S. government's official web portal to all federal, state and local government web resources and services.